[[{"header":{"parameterUnit":"m.s-1","parameterCategory":1,"la1":30.2991,"la2":30.254,"lo1":-89.0895,"lo2":-89.0444,"dy":0.0017,"dx":0.0017,"nx":28,"ny":28,"refTime":"2023-09-11T21:00:00:Z","depth":0,"parameterNumber":2,"parameterNumberName":"U-component_of_WINDS"},"data":[0,0,0,0,0,0,0,0,0,0,0,0,0,0,0,0,0,0,0,0,0,0,0,0,0,0,0,0,0,0,0,0,0,0,0,0,0,0,0,0,0,0,0,0,0,0,0,0,0,0,0,0,0,0,0,0,0,0,0.9369,0.9368,0,0.9287,0.9286,0.9285,0.9211,0.921,0.9209,0.9209,0.9119,0.9117,0.9116,0,0,0,0,0,0,0,0,0,0,0,0,0,0.9459,0.9458,0.9369,0.9368,0.9367,0.9287,0.9286,0.9284,0.9211,0.921,0.9209,0.9208,0.9119,0.9118,0.9116,0,0,0,0,0,0,0,0,0,0,0,0,0,0.9403,0.9458,0.937,0.9321,0.9316,0.9287,0.9285,0.9284,0.9211,0.921,0.9209,0.9208,0.912,0.9118,0.9115,0.9126,0,0,0.9108,0.9107,0,0,0,0,0,0,0,0,0.9406,0.9399,0.9329,0.9325,0.9319,0.9258,0.9284,0.9231,0.9212,0.9251,0.9209,0.9207,0.9166,0.916,0.9147,0.9122,0.9118,0.9108,0.9106,0.9105,0.9105,0,0,0,0,0,0,0,0.941,0.9403,0.9336,0.9328,0.9322,0.9302,0.9293,0.9274,0.9216,0.9247,0.9242,0.9233,0.9163,0.9149,0.9144,0.9117,0.9108,0.9106,0.9104,0.9103,0.9093,0.9094,0,0,0,0,0,0,0.9422,0.9406,0.9339,0.9334,0.936,0.9301,0.9291,0.9279,0.9216,0.9206,0.9235,0.923,0.9154,0.9147,0.9141,0.9147,0.9105,0.9103,0.9102,0.9092,0.9094,0.9095,0,0,0,0,0,0,0.9424,0.9417,0.9342,0.9369,0.9358,0.9301,0.9288,0.9278,0.9264,0.9207,0.9196,0.9232,0.9153,0.9144,0.913,0.9143,0.9102,0.91,0.9091,0.9093,0.9094,0.9161,0,0,0,0,0,0,0.9427,0.9418,0.9423,0.9369,0.9357,0.9335,0.9289,0.9277,0.9261,0.9254,0.9201,0.9191,0.9151,0.9134,0.9128,0.9139,0.9098,0.9089,0.9092,0.9094,0.9157,0.9165,0.9171,0,0,0,0,0,0.9431,0.9444,0.9423,0.9416,0.9361,0.9336,0.9328,0.9283,0.9262,0.9265,0.9228,0.9193,0.9143,0.9133,0.9125,0.9136,0.9088,0.9091,0.9093,0.9154,0.9163,0.9171,0,0,0,0,0,0,0.9499,0.9436,0.9412,0.9409,0.9379,0.9324,0.9326,0.9295,0.9268,0.9263,0.9207,0.9196,0.9187,0.916,0.915,0.9142,0.9111,0.9112,0.9159,0.9167,0.9174,0.918,0.9096,0,0,0,0,0,0.9514,0.95,0.9445,0.9448,0.9434,0.9383,0.937,0.9338,0.9303,0.929,0.9251,0.9218,0.9194,0.918,0.9155,0.9154,0.9139,0.9157,0.9164,0.917,0.9171,0.9165,0.9172,0.9103,0.9103,0.9103,0,0,0.9544,0.9508,0.9502,0.9461,0.9433,0.9418,0.9372,0.9359,0.9346,0.9287,0.9271,0.9242,0.92,0.9192,0.9187,0.9169,0.9187,0.9173,0.9178,0.9176,0.9169,0.9175,0.9181,0.9105,0.9105,0.9105,0,0,0.9591,0.9564,0.9562,0.9535,0.9494,0.946,0.946,0.941,0.9389,0.9372,0.9327,0.9311,0.9272,0.9243,0.9224,0.926,0.9225,0.9254,0.9289,0.9284,0.929,0.9294,0.9304,0.9309,0.9255,0.9255,0.9255,0,0.9633,0.961,0.9564,0.9553,0.9535,0.9483,0.9479,0.9455,0.9408,0.9396,0.9378,0.9327,0.9295,0.9279,0.9288,0.9275,0.927,0.9258,0.9293,0.9297,0.93,0.9309,0.9314,0.9259,0.9258,0.9258,0.9258,0,0.9662,0.9647,0.965,0.9607,0.959,0.9582,0.9534,0.9521,0.9491,0.9459,0.9441,0.9402,0.9367,0.9362,0.9332,0.934,0.933,0.9304,0.9271,0.9311,0.9319,0.9322,0.9264,0.9263,0.9262,0.9261,0,0,0.9748,0.9681,0.9682,0.9661,0.9613,0.9599,0.9589,0.9556,0.9546,0.9515,0.9503,0.9471,0.9446,0.9424,0.939,0.9387,0.9415,0.936,0.9358,0.9369,0.9419,0.9438,0.9443,0.9393,0.9393,0.9394,0.9421,0,0.9785,0.9765,0.9723,0.9715,0.9699,0.9649,0.964,0.9608,0.9577,0.9558,0.9523,0.9501,0.947,0.9456,0.9451,0.9413,0.9424,0.9411,0.9378,0.9378,0.9388,0.9447,0.9467,0.9495,0.9424,0.9425,0.9425,0,0.9825,0.9798,0.9789,0.9741,0.9732,0.9725,0.9691,0.9674,0.9636,0.9613,0.9589,0.9552,0.9536,0.9508,0.9484,0.9476,0.946,0.944,0.944,0.9433,0.9402,0.9439,0.9503,0.9507,0.943,0.9429,0.9429,0,0.9886,0.9848,0.9837,0.9821,0.9764,0.976,0.9736,0.9697,0.968,0.965,0.9637,0.9606,0.9588,0.9563,0.9518,0.9502,0.9498,0.9467,0.9476,0.9478,0.9476,0.9476,0.9536,0.947,0.947,0.947,0.947,0,0.993,0.9925,0.9863,0.9856,0.9849,0.9801,0.9795,0.9766,0.9732,0.9716,0.9672,0.9658,0.96,0.9579,0.9544,0.9528,0.9521,0.95,0.949,0.9503,0.9505,0.949,0.9486,0.9471,0.9471,0.9471,0.9471,0,0.9995,0.9954,0.9938,0.9886,0.9873,0.987,0.9825,0.9815,0.9782,0.9763,0.9756,0.9704,0.9676,0.963,0.9589,0.9565,0.9555,0.954,0.9568,0.9561,0.9573,0.9572,0.9623,0.9626,0.9562,0.9563,0.9563,0,1.0025,1.002,0.9968,0.9956,0.9934,0.9914,0.9897,0.9849,0.9833,0.9789,0.9784,0.9754,0.9727,0.9685,0.9642,0.961,0.9592,0.9612,0.9587,0.9599,0.9589,0.9589,0.9587,0.9617,0.9618,0.9619,0.962,0,1.0081,1.0061,1.0038,1.0008,0.9989,0.9963,0.9934,0.9926,0.9871,0.9854,0.9827,0.9807,0.9765,0.9735,0.9697,0.9669,0.9634,0.9629,0.9629,0.964,0.9656,0.9645,0.9581,0.9627,0.9626,0.9626,0.9625,0.9625,1.0127,1.012,1.0083,1.0059,1.0033,1.0007,0.9995,0.9961,0.9938,0.9901,0.9874,0.9848,0.9809,0.9754,0.9729,0.9706,0.969,0.9691,0.9691,0.9691,0.9695,0.9662,0.9699,0.9699,0.9699,0.9699,0.9698,0,1.0179,1.0152,1.0131,1.0093,1.0073,1.0045,1.0012,0.9997,0.9975,0.9942,0.9917,0.9884,0.9855,0.981,0.9776,0.9766,0.9749,0.9758,0.9757,0.9751,0.9712,0.9715,0.9773,0.9773,0.9773,0.9773,0.9773,0.9773,1.0203,1.019,1.0165,1.0137,1.011,1.0085,1.0068,1.0044,1.0017,0.9983,0.9959,0.9931,0.9892,0.9855,0.9825,0.9812,0.9801,0.9815,0.9797,0.9761,0.9754,0.9747,0.9749,0.9813,0.9813,0.9837,0.9837,0.9837]},{"header":{"parameterUnit":"m.s-1","parameterCategory":1,"la1":30.2991,"la2":30.254,"lo1":-89.0895,"lo2":-89.0444,"dy":0.0017,"dx":0.0017,"nx":28,"ny":28,"refTime":"2023-09-11T21:00:00:Z","depth":0,"parameterNumber":3,"parameterNumberName":"V-component_of_WINDS"},"data":[0,0,0,0,0,0,0,0,0,0,0,0,0,0,0,0,0,0,0,0,0,0,0,0,0,0,0,0,0,0,0,0,0,0,0,0,0,0,0,0,0,0,0,0,0,0,0,0,0,0,0,0,0,0,0,0,0,0,1.2156,1.2157,0,1.2278,1.2279,1.228,1.2323,1.2323,1.2323,1.2322,1.2442,1.2446,1.245,0,0,0,0,0,0,0,0,0,0,0,0,0,1.1955,1.1958,1.2155,1.2157,1.2158,1.2277,1.2279,1.2281,1.2324,1.2323,1.2322,1.2322,1.2441,1.2446,1.245,0,0,0,0,0,0,0,0,0,0,0,0,0,1.2056,1.196,1.2155,1.2194,1.2199,1.2277,1.2279,1.2281,1.2324,1.2323,1.2322,1.2322,1.244,1.2445,1.245,1.2497,0,0,1.2467,1.2469,0,0,0,0,0,0,0,0,1.205,1.2063,1.2187,1.2192,1.2197,1.2285,1.2253,1.2353,1.2324,1.2276,1.2322,1.2321,1.239,1.24,1.2424,1.2503,1.2508,1.2467,1.2471,1.2473,1.2475,0,0,0,0,0,0,0,1.2043,1.2058,1.2204,1.2189,1.2195,1.2204,1.2218,1.2272,1.2335,1.228,1.2284,1.2298,1.2393,1.2419,1.2427,1.251,1.2467,1.2472,1.2476,1.2478,1.2634,1.2635,0,0,0,0,0,0,1.203,1.2052,1.22,1.2207,1.2121,1.2209,1.2224,1.2257,1.2335,1.2346,1.2298,1.2299,1.241,1.2421,1.2431,1.2492,1.2473,1.2478,1.2481,1.2633,1.2634,1.2635,0,0,0,0,0,0,1.2026,1.2043,1.2195,1.2131,1.2151,1.2213,1.225,1.226,1.2286,1.2349,1.2359,1.2313,1.241,1.2424,1.2481,1.2496,1.2481,1.2486,1.2632,1.2633,1.2634,1.2612,0,0,0,0,0,0,1.202,1.2041,1.206,1.2131,1.2154,1.2243,1.2251,1.2263,1.2296,1.2298,1.2365,1.2376,1.241,1.2473,1.2486,1.2503,1.249,1.2631,1.2632,1.2634,1.2611,1.2612,1.2613,0,0,0,0,0,1.2013,1.2048,1.2061,1.2079,1.218,1.2244,1.2257,1.2297,1.2297,1.2316,1.2356,1.2374,1.2493,1.2478,1.2494,1.2513,1.263,1.2632,1.2634,1.2611,1.2612,1.2613,0,0,0,0,0,0,1.1975,1.2058,1.2073,1.2133,1.2182,1.2251,1.2277,1.2297,1.2345,1.2346,1.2392,1.2407,1.246,1.2492,1.2475,1.2562,1.2562,1.2567,1.2539,1.2541,1.2541,1.2532,1.2494,0,0,0,0,0,1.1975,1.2021,1.209,1.2136,1.216,1.2214,1.2244,1.2271,1.2322,1.2342,1.2387,1.2435,1.2483,1.2514,1.2562,1.2617,1.2632,1.2637,1.2638,1.2638,1.2642,1.2673,1.2677,1.2641,1.2641,1.2641,0,0,1.1972,1.2023,1.205,1.213,1.2171,1.2217,1.2231,1.2279,1.2314,1.2349,1.2406,1.2441,1.2498,1.2554,1.2581,1.2582,1.2655,1.2641,1.2641,1.2644,1.2676,1.2679,1.2682,1.2643,1.2643,1.2642,0,0,1.1992,1.2036,1.2079,1.212,1.2182,1.2219,1.2229,1.2296,1.2321,1.238,1.2407,1.2449,1.2531,1.257,1.2601,1.2637,1.2655,1.2652,1.2655,1.2685,1.2688,1.269,1.2703,1.2707,1.2655,1.2655,1.2655,0,1.1981,1.2054,1.2098,1.2146,1.218,1.2216,1.226,1.2297,1.2371,1.2393,1.2394,1.2499,1.254,1.2606,1.2615,1.2639,1.2651,1.2643,1.2684,1.2687,1.269,1.2703,1.2707,1.2654,1.2654,1.2654,1.2655,0,1.2037,1.2087,1.2114,1.2186,1.2224,1.2269,1.2319,1.2351,1.2375,1.2411,1.247,1.2521,1.258,1.2598,1.2621,1.2667,1.2666,1.2675,1.2676,1.2692,1.2704,1.271,1.2653,1.2653,1.2654,1.2654,0,0,1.2035,1.2133,1.2142,1.2176,1.2248,1.2287,1.2333,1.2393,1.2419,1.247,1.2509,1.2579,1.2588,1.2623,1.2651,1.2678,1.2703,1.2683,1.2685,1.2685,1.2757,1.275,1.2754,1.2716,1.2717,1.2718,1.2752,0,1.2064,1.2151,1.2192,1.226,1.2306,1.2342,1.2383,1.243,1.2465,1.2509,1.2547,1.2595,1.2604,1.2625,1.2653,1.2694,1.2718,1.2692,1.2752,1.2753,1.2736,1.2761,1.2753,1.2783,1.2757,1.2758,1.2759,0,1.2109,1.2161,1.2233,1.2301,1.2322,1.2358,1.2416,1.2457,1.2512,1.2536,1.2576,1.2603,1.2653,1.2651,1.2719,1.2701,1.2728,1.2752,1.2754,1.276,1.2756,1.2767,1.2794,1.2798,1.2767,1.2767,1.2766,0,1.21,1.2188,1.2243,1.2271,1.2351,1.2375,1.2409,1.2464,1.2497,1.2548,1.257,1.2625,1.2655,1.2696,1.2738,1.2732,1.2802,1.2803,1.2822,1.2821,1.2834,1.2833,1.2865,1.2853,1.2853,1.2853,1.2853,0,1.2128,1.2171,1.224,1.2274,1.2323,1.237,1.2417,1.2454,1.2502,1.2543,1.2577,1.2614,1.2667,1.2711,1.2744,1.2796,1.2809,1.2828,1.2836,1.2825,1.2822,1.2843,1.2841,1.2854,1.2854,1.2853,1.2853,0,1.2126,1.2174,1.2237,1.2308,1.2327,1.236,1.242,1.2454,1.2491,1.2542,1.2557,1.2614,1.2668,1.2714,1.2784,1.2806,1.2859,1.2869,1.2841,1.2845,1.2861,1.2858,1.2906,1.2915,1.2897,1.2897,1.2898,0,1.214,1.2174,1.2249,1.228,1.2314,1.2362,1.2397,1.2445,1.248,1.2546,1.2571,1.2627,1.2675,1.2758,1.2806,1.2859,1.2871,1.2884,1.2879,1.2866,1.287,1.2867,1.2871,1.2883,1.2883,1.2883,1.2883,0,1.2159,1.2182,1.2231,1.2289,1.233,1.2378,1.2426,1.2449,1.2506,1.2543,1.2599,1.2636,1.2708,1.2763,1.2823,1.2857,1.2879,1.2885,1.2892,1.288,1.2862,1.2872,1.284,1.2883,1.2883,1.2883,1.2883,1.2883,1.2166,1.2198,1.2256,1.231,1.2352,1.2397,1.2432,1.2474,1.2522,1.2586,1.2611,1.2668,1.2722,1.2805,1.2839,1.2884,1.2887,1.2897,1.29,1.2902,1.29,1.2856,1.2895,1.2895,1.2895,1.2895,1.2895,0,1.2186,1.2226,1.2275,1.2343,1.2385,1.2405,1.246,1.2493,1.2544,1.2593,1.264,1.2704,1.2758,1.2811,1.2867,1.2893,1.2905,1.2906,1.2904,1.2912,1.2893,1.2881,1.2895,1.2895,1.2895,1.2895,1.2895,1.2895,1.2202,1.2258,1.2287,1.2364,1.2403,1.246,1.249,1.2531,1.2571,1.2642,1.2687,1.2722,1.2773,1.2833,1.2884,1.2898,1.2917,1.2915,1.2932,1.2913,1.2913,1.2912,1.2901,1.2919,1.2919,1.2946,1.2946,1.2947]}]]